• MPC Preparation (Info)

  • MPEC 2017-E71 : 2017 EB3

    The following Minor Planet Electronic Circular may be linked-to from your own Web pages, but must not otherwise be redistributed electronically.

    A form allowing access to any MPEC is at the bottom of this page.


    Read MPEC 2017-E70 Read MPEC 2017-E72


    M.P.E.C. 2017-E71                                Issued 2017 Mar. 10, 02:37 UT
    
         The Minor Planet Electronic Circulars contain information on unusual
             minor planets and routine data on comets.  They are published
        on behalf of Division F of the International Astronomical Union by the
              Minor Planet Center, Smithsonian Astrophysical Observatory,
                              Cambridge, MA 02138, U.S.A.
    
                 Prepared using the Tamkin Foundation Computer Network
    
                                  MPC@CFA.HARVARD.EDU
                URL https://www.minorplanetcenter.net/    ISSN 1523-6714
    
                                       2017 EB3
    
    Observations:
         K17E03B* C2017 03 06.39675 11 36 00.461+29 50 47.54         20.7 iLEE071F51
         K17E03B  C2017 03 06.40820 11 35 57.839+29 51 16.53         20.7 iLEE071F51
         K17E03B  C2017 03 06.41968 11 35 55.175+29 51 45.47         20.3 iLEE071F51
         K17E03B  C2017 03 06.43065 11 35 52.634+29 52 12.68         20.3 iLEE071F51
         K17E03B KC2017 03 07.52228 11 32 13.63 +30 36 11.3          20.2 RoEE071291
         K17E03B KC2017 03 07.52341 11 32 13.42 +30 36 13.8          20.5 RoEE071291
         K17E03B KC2017 03 07.52454 11 32 13.12 +30 36 16.5          20.7 RoEE071291
         K17E03B  C2017 03 08.23473911 29 56.08 +31 06 38.0          20.7 VtEE071H01
         K17E03B  C2017 03 08.23872011 29 55.07 +31 06 49.1          20.9 VtEE071H01
         K17E03B  C2017 03 08.24620511 29 53.13 +31 07 09.5          20.6 VtEE071H01
         K17E03B  C2017 03 08.25780211 29 50.14 +31 07 40.1          20.5 VtEE071H01
         K17E03B  C2017 03 08.47940 11 28 53.21 +31 16 56.9          20.9 VoEE071691
         K17E03B  C2017 03 08.48920 11 28 50.80 +31 17 19.6          20.5 VoEE071691
         K17E03B  C2017 03 08.49895 11 28 48.46 +31 17 42.0          20.4 VoEE071691
    
    Observer details:
    291 LPL/Spacewatch II.  Observer A. F. Tubbiolo.  1.8-m f/2.7 reflector + CCD.
    691 Steward Observatory, Kitt Peak.  Observer A. F. Tubbiolo.  0.9-m f/3
        reflector + CCD.
    F51 Pan-STARRS 1, Haleakala.  Observers B. Gibson, T. Goggia, S. Kahale,
        T. Lowe, A. Schultz, M. Willman.  Measurers K. Chambers, S. Chastel,
        L. Denneau, H. Flewelling, M. Huber, E. Lilly, E. Magnier, R. Wainscoat,
        C. Waters, R. Weryk.  1.8-m Ritchey-Chretien + CCD.
    H01 Magdalena Ridge Observatory, Socorro.  Observers W. H. Ryan, E. V. Ryan.
        Measurer W. H. Ryan.  2.4-m f/8.9 reflector + CCD.
    
    Orbital elements:
    2017 EB3                                                 Earth MOID = 0.0131 AU
    Epoch 2017 Feb. 16.0 TT = JDT 2457800.5                 MPC
    M 251.33592              (2000.0)            P               Q
    n   0.93176459     Peri.  248.28499     +0.07166990     +0.99719655
    a   1.0381623      Node    25.85323     -0.89593229     +0.07383772
    e   0.1527129      Incl.    2.82671     -0.43837058     +0.01212531
    P   1.06           H   25.0           G   0.15           U   7
    Residuals in seconds of arc
    170306 F51  0.0   0.0     170307 291  0.4+  0.0     170308 H01  0.1-  0.5-
    170306 F51  0.1+  0.0     170307 291  0.3-  0.2+    170308 691  0.1-  0.1+
    170306 F51  0.1-  0.1+    170308 H01  0.1+  0.4-    170308 691  0.2-  0.1+
    170306 F51  0.0   0.1-    170308 H01  0.2+  0.1-    170308 691  0.2+  0.1+
    170307 291  0.1-  0.0     170308 H01  0.1-  0.1+
    
    Ephemeris:
    2017 EB3                 a,e,i = 1.04, 0.15, 3                   q = 0.8796
    Date    TT    R. A. (2000) Decl.     Delta      r     Elong.  Phase     V
    2017 02 08    12 00 43.9 +18 26 40   0.1685  1.1255   143.0    31.9    22.7
    ...
    2017 02 23    11 57 41.5 +23 29 34   0.1143  1.0933   154.0    23.4    21.6
    ...
    2017 03 03    11 44 59.9 +27 41 01   0.09017 1.0744   156.1    22.0    21.0
    ...
    2017 03 09    11 27 03.5 +31 39 53   0.07442 1.0596   152.8    25.3    20.6
    2017 03 10    11 23 05.7 +32 24 19   0.07199 1.0571   151.8    26.4    20.6
    2017 03 11    11 18 47.3 +33 10 08   0.06961 1.0545   150.6    27.5    20.6
    ...
    2017 03 17    10 43 35.3 +38 12 13   0.05653 1.0392   140.5    37.5    20.4
    ...
    2017 03 25    09 15 14.0 +45 01 35   0.04289 1.0184   118.5    59.4    20.3
    ...
    2017 04 09    04 31 44.8 +32 50 54   0.03720 0.9795    52.9   125.3    23.1
    
    A. U. Tomatic                (C) Copyright 2017 MPC           M.P.E.C. 2017-E71
    

    Read MPEC 2017-E70 Read MPEC 2017-E72


    MPEC number:

    Enter an MPEC number in one of the following forms:

    • 1997-B01 (the full form)
    • J97B01 (the packed version of the full form)
    • B01 (the abbreviated form)